Location: Carrières
(48.9495°N, 2.0407°E)
Time: 13:29:02
(UTC+00:00)

YAOGAN 1 - Pass Details

Date: 28 January 2023
Orbit: 616 x 618 km, 97.8° (Epoch: 22 March)

Event Time Altitude Azimuth Distance (km) Brightness Sun altitude
Rises 18:04:33 0° 150° (SSE) 2,882 5.8 -13.5°
Reaches altitude 10° 18:06:46 10° 145° (SE) 1,981 4.9 -13.9°
Maximum altitude 18:10:55 49° 71° (ENE) 803 2.7 -14.6°
Drops below altitude 10° 18:15:06 10° 356° (N) 1,997 5.1 -15.2°
Sets 18:17:21 0° 351° (N) 2,908 6.0 -15.6°
